Theta_e
364 364 364 363 364 364 364 365 364 363 364 363 363 363 362 362 362 362 361 361 361 362 363 362 362 363 363 362 362 362 363 364 363 363 362 361 360 360 359 357 356 356 355 354 352 349 347 346 346 345 344 344 343 342 342 342 341 340 341 342 341 341 341 341 340 341 340 339 338 337 337 338 338 339 339 339 339 340 338 338 339 339 338 337 337
364 364 364 364 364 364 364 365 364 364 364 364 363 363 363 363 362 362 362 362 362 362 363 363 362 363 362 363 363 363 364 365 364 363 363 361 361 361 360 358 357 356 355 355 353 351 349 347 346 346 345 344 344 343 342 342 341 341 342 342 341 341 342 341 340 340 341 342 341 338 337 339 339 339 340 339 338 339 340 340 340 339 339 338 337
364 364 364 364 364 364 365 365 365 365 364 364 364 363 364 364 363 363 362 362 363 362 362 362 363 363 363 364 364 364 365 365 364 363 363 362 361 361 360 359 357 357 356 356 355 353 351 349 347 346 345 345 345 344 343 342 342 342 342 342 342 342 343 342 341 341 341 341 342 340 339 340 339 339 340 340 340 340 340 340 339 338 338 338 338
362 364 364 364 364 364 365 364 364 364 364 364 364 363 363 363 363 363 362 361 363 363 363 363 363 364 364 364 365 365 365 366 365 364 362 362 361 361 361 360 359 358 357 357 357 355 353 351 348 346 346 346 345 344 344 343 343 342 342 343 343 342 343 343 342 342 342 342 342 341 340 341 340 339 340 340 340 340 340 339 339 339 339 339 339
360 363 364 363 364 365 365 364 364 364 364 363 363 362 362 363 363 364 363 362 362 363 363 363 363 365 365 364 365 365 365 366 365 364 363 362 361 361 361 361 360 360 359 358 357 356 354 353 350 348 347 347 346 345 345 344 344 343 343 343 344 343 343 344 344 342 342 342 342 342 342 341 340 340 340 340 340 340 341 341 340 341 341 339 338
360 362 363 363 363 364 364 364 364 363 363 362 362 362 361 361 362 363 363 362 362 362 363 363 363 364 365 365 364 365 365 365 365 364 363 363 362 361 361 361 360 360 359 358 358 357 356 354 352 350 348 348 347 345 345 346 345 345 344 344 344 344 343 343 344 343 343 343 343 342 342 341 341 341 341 341 341 341 342 343 343 342 342 341 339
359 361 363 362 363 364 364 364 363 363 362 362 362 361 361 361 361 362 362 363 362 361 361 363 363 364 364 365 364 365 365 365 365 364 363 363 362 361 361 361 360 360 359 359 358 357 356 355 354 352 350 350 349 346 346 347 347 346 345 344 344 345 344 344 343 342 342 343 343 342 341 340 341 342 343 344 343 342 342 342 342 343 343 343 343
358 360 361 362 363 364 365 364 364 363 362 363 362 361 361 361 361 361 361 362 362 361 360 362 363 364 364 364 364 364 365 365 365 365 363 363 362 362 361 360 360 360 359 358 358 357 356 355 354 353 352 351 350 348 346 347 348 347 346 345 345 345 345 344 343 342 342 342 342 342 341 340 340 341 344 346 344 343 343 343 343 343 343 344 343
359 359 361 363 363 364 365 365 364 364 363 363 363 363 362 362 362 362 362 362 362 361 360 360 363 364 364 364 364 364 364 365 365 364 363 363 362 362 361 360 360 360 359 358 357 357 356 355 355 354 353 352 351 348 346 347 347 347 347 346 345 345 346 345 343 342 342 342 341 342 341 341 340 341 344 345 344 343 343 344 344 343 341 341 342
359 359 361 363 363 364 365 365 365 365 364 363 364 363 362 362 362 362 362 362 362 362 361 361 361 363 364 364 364 364 364 364 363 361 361 361 361 361 361 360 359 359 359 358 357 357 356 355 354 353 352 351 350 348 346 345 345 345 346 347 346 345 346 345 344 343 343 342 342 341 341 341 341 341 342 343 343 343 344 344 344 343 342 340 340
360 360 362 363 363 365 366 365 365 366 364 364 365 364 363 363 363 363 363 363 363 363 362 362 361 362 364 364 364 364 364 362 360 359 359 358 359 361 361 360 360 359 359 359 358 357 356 355 355 353 352 350 350 348 346 344 342 340 341 344 345 345 345 345 344 344 343 343 342 341 341 341 340 341 343 343 342 342 343 343 343 343 342 340 338
361 361 363 364 365 366 366 366 366 366 365 365 364 365 364 364 363 364 364 364 364 363 363 363 362 361 362 364 364 364 364 362 359 358 358 356 356 359 361 361 360 359 359 358 358 357 357 356 356 355 353 351 349 348 346 344 342 340 338 340 342 343 343 344 345 344 343 343 342 341 341 340 340 342 343 342 342 343 343 344 343 343 341 340 339
361 364 363 364 365 365 366 367 366 366 366 365 364 365 365 364 364 364 364 364 364 364 363 363 363 362 362 363 364 364 364 362 360 358 357 356 354 356 359 360 360 359 358 358 358 358 357 357 356 356 354 351 349 348 347 345 343 341 338 338 340 341 340 340 342 343 343 342 342 342 341 339 341 344 344 342 342 343 343 343 343 342 341 340 340
361 364 364 364 365 366 366 367 366 366 366 365 365 366 365 365 365 363 364 364 364 365 364 364 364 364 363 363 364 364 364 363 361 359 357 356 355 354 356 359 359 359 359 358 358 358 358 357 357 356 355 352 350 349 349 347 344 342 339 338 339 340 339 338 338 339 340 341 341 341 341 340 343 346 345 343 342 342 343 343 343 342 342 341 340
361 364 364 364 365 366 366 366 365 365 366 365 365 365 365 365 365 363 363 364 365 365 365 364 364 364 364 364 363 364 364 363 362 360 358 356 355 354 354 357 358 359 359 359 358 358 358 358 358 357 356 354 350 349 350 349 347 344 341 340 340 341 341 340 339 339 340 340 340 340 341 342 344 344 343 343 343 342 342 343 343 342 341 339 337
360 364 365 364 364 365 365 364 364 365 365 365 365 365 365 365 365 364 363 363 364 365 365 365 365 364 365 364 364 364 364 362 361 360 358 357 356 354 354 356 357 358 359 359 357 357 357 358 358 357 356 354 351 349 349 350 350 348 345 343 343 342 342 342 341 340 340 340 340 339 339 340 342 341 340 342 343 342 341 341 341 340 338 336 335
361 363 365 364 363 363 363 364 364 364 365 365 365 365 365 365 365 365 364 363 364 365 365 365 365 364 365 365 364 365 364 363 361 360 358 357 356 355 354 355 357 358 358 358 356 356 356 357 358 358 357 355 352 349 348 349 350 350 348 346 345 344 343 343 342 341 340 339 341 341 339 339 340 338 336 338 340 340 340 339 338 338 337 337 336
362 363 364 363 361 363 363 364 365 365 364 365 365 365 365 365 365 365 364 364 363 363 364 365 365 365 365 364 365 365 364 363 361 359 358 357 356 355 354 355 356 357 358 357 355 355 355 355 357 357 357 355 352 350 348 347 349 350 349 347 347 345 344 343 343 342 340 339 340 340 339 338 338 335 333 333 335 336 338 338 336 336 336 336 334
362 363 362 361 361 363 363 364 365 365 365 365 364 364 365 364 365 365 364 364 363 363 363 364 365 365 364 364 364 363 363 363 361 360 359 357 357 356 354 355 356 357 357 356 355 355 355 355 355 356 356 355 352 350 348 347 348 349 348 347 347 346 344 342 343 343 341 340 340 339 338 338 335 332 331 331 333 336 338 337 335 335 334 333 332
362 362 362 361 362 362 363 364 365 364 365 365 365 364 365 364 364 364 364 364 363 363 363 363 365 365 365 364 363 362 361 362 361 360 359 357 357 356 355 356 356 356 357 355 355 354 354 355 355 354 354 353 352 350 349 347 347 348 348 348 347 346 344 342 341 342 342 341 340 339 338 336 334 332 333 334 336 337 338 336 335 334 333 331 330
363 363 362 361 361 362 363 364 365 364 364 365 365 364 364 364 364 364 364 364 364 364 364 363 363 365 364 364 363 362 361 361 361 360 359 358 358 356 355 356 356 356 356 355 355 355 354 355 355 354 353 352 350 350 349 347 346 346 347 347 346 345 344 342 342 342 341 341 341 340 338 337 336 334 335 336 337 337 336 335 333 333 332 330 328
364 364 363 361 361 363 364 364 365 364 363 364 365 365 365 365 364 365 365 365 365 365 365 364 363 364 364 363 362 361 361 361 360 360 359 358 358 356 355 356 356 356 356 356 355 354 354 355 355 353 352 350 349 349 349 347 345 344 345 346 345 344 343 341 342 342 341 340 340 339 338 338 336 335 334 335 336 335 333 332 331 331 331 329 328
362 362 362 362 361 362 363 363 364 363 362 363 364 366 366 365 365 365 366 366 365 364 364 364 364 363 363 362 361 361 361 361 361 360 359 358 358 357 356 356 355 356 357 357 356 355 355 355 354 352 351 349 347 348 348 346 344 343 343 344 343 343 342 340 341 341 339 338 338 338 337 337 335 334 333 334 334 333 331 330 330 330 330 328 327
362 362 361 361 361 361 361 362 362 362 362 363 364 366 366 366 366 366 366 365 365 364 363 363 363 363 362 361 361 361 361 361 362 361 360 358 358 357 356 355 355 355 356 358 358 357 356 355 352 351 350 347 346 346 346 345 344 342 342 343 343 342 341 340 340 341 339 337 337 337 337 336 334 334 334 333 333 332 331 331 330 329 328 327 325
361 361 361 362 362 361 361 361 363 363 363 364 365 366 367 366 366 365 365 364 364 363 363 363 363 363 362 362 362 361 361 361 363 362 361 359 358 357 356 356 355 354 356 357 358 357 356 354 351 350 349 347 346 345 344 344 343 341 340 342 343 342 341 340 340 340 339 337 337 337 336 335 334 334 334 333 332 332 331 330 328 327 326 326 325
361 361 361 362 362 362 362 362 363 364 364 365 365 365 365 365 364 364 363 363 363 363 363 362 362 362 363 363 363 362 362 362 363 364 362 360 358 356 355 356 356 355 354 355 356 356 355 353 351 349 347 346 345 344 343 342 342 340 340 341 342 341 340 340 340 340 339 338 337 336 335 335 334 333 333 332 331 331 330 328 326 325 325 324 324
365 364 363 362 362 361 361 361 362 363 363 364 364 363 363 364 364 364 364 363 364 364 363 363 363 362 362 363 362 363 363 363 364 366 363 359 357 356 355 354 355 354 353 353 354 355 354 352 350 348 347 346 344 342 342 341 340 340 339 340 340 339 339 340 340 339 339 337 336 336 335 334 334 333 332 332 331 330 328 326 325 325 324 323 323
366 366 366 365 364 363 363 361 361 362 362 362 362 361 361 361 362 362 363 363 364 364 364 364 363 363 363 363 362 363 364 363 364 365 362 358 356 353 352 352 353 352 351 351 353 354 353 351 349 347 345 342 339 338 338 339 338 338 338 338 339 339 339 339 338 338 338 337 336 335 335 334 333 332 332 331 330 329 327 326 326 325 324 323 323
362 363 362 363 362 363 363 362 361 363 363 362 363 363 363 362 363 363 363 363 364 363 362 363 363 364 363 363 363 364 363 364 364 364 363 361 358 354 353 353 353 353 353 352 350 350 349 346 344 341 338 336 335 335 335 336 336 336 336 338 339 339 338 338 338 338 337 336 336 335 334 333 332 331 330 330 328 328 327 326 326 325 324 323 322
356 355 355 355 356 357 358 358 358 360 360 359 360 358 355 353 354 356 357 357 357 357 357 356 356 355 354 356 361 362 361 361 362 362 361 361 360 357 356 356 355 354 353 350 347 345 343 341 338 336 335 335 335 335 335 335 336 336 336 337 338 338 338 338 338 337 337 336 335 334 333 332 331 330 329 328 328 327 327 326 325 325 324 323 321
352 351 350 350 350 352 352 352 353 353 352 352 352 351 348 343 340 339 339 339 339 341 342 341 341 340 339 342 346 349 350 353 355 356 356 356 357 358 357 355 355 353 350 347 344 341 340 338 336 335 336 336 336 335 335 335 336 336 336 336 337 337 337 337 337 336 336 335 334 333 332 331 330 329 329 328 327 327 327 326 325 324 323 322 320
350 349 348 347 348 348 349 349 349 349 348 348 348 348 348 346 343 340 337 335 334 334 333 333 333 333 332 332 333 335 335 337 339 341 342 344 348 353 356 355 352 351 349 346 342 339 339 339 337 335 337 337 336 335 336 336 336 337 336 336 336 336 336 336 335 335 334 334 333 332 331 330 330 329 328 328 327 326 327 326 323 322 322 321 319
348 347 346 346 346 347 348 349 349 348 347 347 347 347 346 344 344 344 342 340 339 336 334 332 332 332 332 331 330 330 329 329 329 330 331 332 336 342 350 353 350 348 347 343 340 339 339 338 336 336 337 337 336 335 336 336 336 336 336 335 335 335 335 335 334 334 334 333 332 331 330 329 329 329 328 327 326 325 325 324 322 321 321 320 319
346 346 346 346 345 345 347 348 347 347 346 346 346 347 346 345 345 345 344 344 344 342 338 335 333 332 332 331 329 328 327 326 323 323 324 325 325 328 338 347 346 344 344 342 339 339 338 336 335 336 336 336 336 335 335 336 336 335 335 334 335 335 335 334 333 334 333 331 330 330 329 328 328 329 327 326 325 324 323 322 321 321 321 320 319
345 345 345 344 344 344 345 345 345 345 345 346 345 345 344 345 345 345 345 344 344 343 341 338 334 332 332 331 329 328 325 322 319 317 317 319 318 317 325 334 334 331 335 340 339 337 336 335 336 336 336 335 335 335 335 335 335 334 334 334 334 334 334 334 333 333 332 330 330 330 329 328 328 328 327 325 325 323 322 321 321 321 320 319 319
345 345 344 343 343 343 343 343 343 343 343 344 344 344 344 344 343 344 344 343 342 340 340 338 335 334 333 332 331 330 326 323 320 317 316 317 316 314 318 327 328 325 330 337 338 336 336 336 335 336 335 334 334 334 334 334 334 333 334 334 333 334 334 333 333 332 330 329 329 329 328 328 328 327 326 325 324 323 321 321 320 320 319 318 317
345 344 344 344 343 343 343 343 343 342 342 342 342 343 343 342 341 341 341 340 339 338 337 336 335 334 334 334 332 331 331 328 324 321 320 320 317 314 317 325 330 330 332 336 336 335 335 335 335 335 335 334 334 335 334 335 334 334 334 333 333 333 333 332 332 331 330 329 329 329 329 329 328 327 325 323 322 322 321 321 321 319 318 316 314
343 343 343 343 344 344 344 343 343 343 343 342 342 342 342 341 341 340 339 337 336 336 335 335 335 333 333 333 331 331 333 333 330 329 329 324 317 315 320 328 332 333 334 334 334 334 334 334 334 334 334 334 334 335 335 334 334 334 333 334 333 332 332 332 331 330 330 330 329 329 329 329 328 326 325 323 322 321 321 320 320 319 316 314 312
342 341 341 342 342 342 342 342 343 343 342 342 341 341 341 341 340 340 338 336 335 335 334 334 333 332 331 331 330 330 332 335 334 334 334 329 323 324 329 333 334 334 333 333 333 333 333 333 333 333 333 334 335 335 334 334 333 333 333 333 333 332 332 331 331 331 331 330 330 329 329 328 326 325 324 323 321 321 320 320 319 317 315 313 311
340 340 340 341 341 341 341 341 341 342 341 341 340 340 340 340 340 340 339 336 335 335 335 333 332 332 330 330 330 330 331 334 335 334 334 334 334 335 335 333 333 333 333 333 333 333 333 333 333 333 333 334 334 334 334 333 333 333 333 333 332 332 332 331 332 332 331 329 329 329 328 327 325 325 323 322 321 320 320 319 317 314 313 313 313
339 338 339 339 340 340 340 339 339 341 341 340 340 339 339 339 339 339 338 336 335 335 335 333 332 332 330 330 331 331 330 331 332 333 333 335 336 336 335 334 334 334 333 334 334 334 334 333 333 333 334 334 334 333 333 333 333 333 333 332 331 331 331 331 331 331 330 329 328 328 327 326 324 323 322 321 320 319 318 316 315 313 312 312 312
340 339 339 338 338 340 339 338 338 339 340 339 339 338 338 338 338 338 337 336 335 335 334 333 332 332 331 330 331 331 330 330 330 331 332 333 334 334 334 334 334 334 334 334 334 333 333 333 333 333 333 333 333 333 333 332 332 332 331 331 330 329 329 329 330 330 329 328 327 326 326 324 322 321 321 320 318 317 316 314 313 312 312 312 311
340 340 340 339 338 338 339 338 337 338 337 338 338 337 337 337 337 338 337 336 334 333 334 334 334 333 332 330 330 331 330 329 329 329 330 330 331 332 333 333 334 333 333 332 332 331 331 331 331 332 332 332 332 331 331 331 331 331 330 330 329 328 328 329 329 329 328 326 325 324 323 322 320 320 319 318 316 315 314 313 313 312 312 312 312
339 339 339 339 339 338 338 338 337 336 336 337 337 336 336 336 336 337 337 336 334 333 334 334 334 335 334 333 333 332 330 328 328 328 329 329 330 330 331 331 332 331 331 330 330 329 329 330 331 331 331 331 330 330 330 331 330 329 329 328 327 327 327 326 326 325 324 323 322 322 321 320 320 319 317 316 315 314 314 313 312 312 312 312 312
338 338 337 338 338 337 337 337 337 336 336 336 336 335 335 334 335 335 335 335 335 335 334 334 334 334 335 335 334 333 331 329 327 327 327 328 329 329 329 330 330 330 329 329 329 329 330 331 331 331 330 330 329 329 329 329 328 326 326 325 324 324 323 323 322 322 321 320 320 320 319 319 318 317 315 315 315 315 314 314 313 312 311 311 311
336 336 335 335 335 335 335 335 335 335 335 335 335 335 334 333 334 334 334 334 334 334 334 335 334 334 334 334 334 334 332 330 328 327 327 327 328 328 328 329 329 329 329 330 331 331 331 331 330 330 329 328 328 327 326 324 323 323 322 322 321 321 320 320 319 319 319 319 319 318 318 317 317 316 315 315 315 314 314 314 313 312 311 310 310
333 333 333 333 332 332 332 332 332 333 333 332 333 333 333 333 333 333 333 334 334 334 334 334 333 332 332 333 333 333 332 331 329 328 327 327 328 328 328 328 329 329 329 330 330 330 330 329 329 328 326 325 325 324 322 322 321 321 320 320 319 319 319 319 318 318 318 317 317 317 316 316 316 315 315 315 315 314 314 313 312 312 311 310 310
331 330 330 330 330 330 330 330 330 331 331 331 331 330 331 331 331 331 331 332 332 333 334 334 332 329 329 330 331 332 332 332 331 330 329 329 329 329 329 329 329 329 329 328 328 328 328 327 326 324 324 323 323 322 321 321 320 319 319 319 318 318 318 318 318 318 317 317 317 317 317 316 316 316 315 314 314 314 313 312 311 311 310 310 309
328 328 328 328 328 328 328 328 328 329 329 329 329 328 328 328 327 327 328 328 329 329 331 331 331 329 329 330 331 332 332 332 331 330 329 329 329 329 329 329 329 329 329 328 328 327 326 325 324 323 323 322 322 321 320 319 319 318 318 318 317 316 316 316 316 316 316 316 316 316 316 316 315 315 314 314 313 312 312 311 310 310 309 309 309
324 324 324 324 325 325 326 326 327 327 327 327 327 327 326 326 325 325 325 326 326 326 326 326 327 327 328 329 330 330 331 330 329 328 327 326 326 326 327 326 327 327 327 327 327 326 325 324 323 323 322 321 320 319 319 318 317 317 317 315 314 312 311 311 311 311 312 313 313 313 314 314 314 313 313 312 311 311 311 310 310 309 309 308 308
321 321 321 321 321 322 322 323 323 323 324 324 324 324 324 324 324 323 322 322 322 322 322 323 323 324 324 325 326 326 327 328 327 327 326 326 325 325 325 325 325 326 326 325 326 326 325 324 323 323 322 320 319 318 318 317 317 316 315 312 310 310 309 309 308 306 305 307 310 311 311 311 312 311 310 310 309 309 309 309 308 308 308 307 306
Wind_Speed
34 34 33 32 31 30 30 31 30 29 28 27 27 27 26 26 26 25 24 24 24 24 24 24 24 23 22 22 22 22 21 21 21 21 21 20 19 18 18 18 19 18 17 17 17 16 17 18 17 16 16 15 15 14 14 15 15 14 13 13 12 12 12 11 9 7 7 7 7 7 7 8 8 9 9 8 8 8 8 7 8 9 8 8 9
34 34 33 32 33 32 31 31 30 30 29 28 28 27 26 27 27 25 24 25 25 25 25 25 25 24 23 22 22 22 22 22 21 21 21 21 20 19 19 20 20 20 19 19 18 17 17 18 18 17 17 17 16 16 15 15 16 15 14 14 13 13 13 12 11 9 9 8 8 9 9 9 10 9 9 10 9 8 7 7 8 8 9 9 9
35 34 33 33 34 33 32 31 30 30 30 29 29 29 28 27 27 27 26 25 25 25 25 24 24 25 24 23 22 22 22 22 22 22 22 22 22 21 20 21 22 21 22 21 20 19 18 19 19 19 18 18 18 17 16 16 16 15 15 15 14 13 13 13 12 10 10 9 9 10 10 10 11 10 10 10 9 8 9 9 9 9 9 9 9
34 34 34 34 34 33 32 32 31 31 31 30 30 30 29 28 27 28 28 26 24 25 25 25 24 24 25 24 23 23 23 23 22 22 22 23 24 23 22 22 23 23 23 22 21 20 20 20 20 20 19 19 19 18 17 17 16 16 16 16 15 14 13 13 13 12 10 9 10 10 10 10 10 10 10 10 10 9 9 9 9 9 8 9 9
34 34 34 34 33 33 33 33 32 33 33 31 31 31 30 28 27 28 28 27 25 24 25 25 25 24 25 25 24 24 24 24 23 23 23 23 24 24 23 23 24 24 24 23 22 22 22 21 21 21 21 20 20 19 19 18 18 17 17 17 16 15 14 14 14 13 12 10 10 10 10 9 10 10 10 10 10 10 9 9 9 8 8 9 9
34 34 34 34 34 34 34 34 34 34 34 33 32 32 31 30 28 27 28 28 27 26 25 25 26 26 26 25 25 25 25 25 25 24 24 23 24 24 24 24 24 24 24 24 23 23 23 22 22 22 22 22 21 20 20 20 20 19 19 18 17 16 16 15 15 14 14 12 11 10 11 11 10 10 11 11 10 9 8 8 8 9 9 9 8
34 33 33 33 34 35 35 35 35 35 35 34 32 32 31 31 30 29 28 28 28 28 27 26 26 26 27 27 26 26 25 25 25 25 25 24 24 24 24 24 24 24 24 24 24 23 23 23 23 23 24 24 23 21 21 21 21 20 20 19 18 17 16 16 16 15 15 13 12 12 11 12 11 11 10 10 9 9 8 8 8 9 9 8 8
33 33 32 32 33 34 35 35 36 35 34 33 33 32 31 31 31 30 28 28 29 29 29 28 26 26 27 28 28 27 26 26 26 26 26 24 24 24 25 24 23 23 24 24 24 24 23 24 24 24 25 25 24 23 22 22 21 21 20 19 18 18 17 16 16 17 16 14 13 13 12 12 12 12 11 10 10 9 9 9 9 8 8 8 7
33 33 32 32 33 33 33 33 33 33 32 31 32 32 31 31 31 30 29 28 28 29 29 29 27 26 28 28 29 28 27 27 28 28 28 26 25 24 25 26 25 24 23 24 24 24 24 24 24 25 26 26 26 25 24 24 22 20 20 20 19 18 18 17 16 17 16 15 14 13 13 13 13 13 13 12 11 9 9 9 10 9 9 8 7
33 33 32 32 32 31 32 31 30 31 32 31 31 32 31 30 30 30 30 29 28 28 28 29 28 27 28 28 28 28 28 29 31 33 32 30 26 24 25 25 26 25 24 24 24 24 24 25 25 26 27 29 29 29 28 27 26 23 20 20 20 19 18 18 17 17 16 16 15 14 14 14 14 14 14 12 11 10 9 9 10 10 9 9 8
32 33 32 31 30 31 31 30 30 30 32 32 31 31 31 30 30 30 30 29 29 28 28 29 29 28 27 28 29 29 29 31 34 36 36 35 30 26 24 25 25 26 26 25 25 24 24 25 25 25 27 30 31 31 31 30 30 28 24 23 23 22 20 19 18 18 17 16 15 15 15 15 14 13 13 12 11 10 10 10 10 9 8 9 8
30 31 30 29 30 31 30 29 30 30 31 32 31 30 31 30 29 29 29 29 29 29 29 29 30 30 28 28 29 29 30 33 36 37 38 39 36 29 24 23 25 26 26 26 26 25 24 24 24 23 25 28 29 30 32 33 31 30 29 27 27 26 24 22 19 18 18 17 16 15 15 15 14 13 13 11 10 10 10 10 10 9 9 9 8
28 27 28 28 29 30 29 29 30 30 31 32 30 30 30 30 30 30 29 29 29 30 30 30 30 30 30 29 29 29 29 32 37 39 39 40 40 36 28 24 25 26 27 27 27 26 25 24 23 22 23 26 28 27 29 33 33 31 30 30 30 30 29 27 24 21 19 18 17 17 16 15 14 13 12 11 9 9 9 9 9 9 9 8 8
25 25 27 28 28 28 29 30 30 30 30 30 29 30 30 30 30 30 29 29 29 29 30 30 30 30 31 30 29 29 29 31 35 39 40 40 41 40 34 27 26 27 27 28 28 27 26 25 24 23 22 25 28 27 25 28 31 32 33 32 32 32 32 31 30 28 24 21 19 18 17 15 14 12 10 10 10 10 9 9 8 8 8 7 6
25 24 26 28 28 28 29 30 29 28 28 28 29 30 30 30 30 30 29 28 29 29 29 30 30 30 30 30 29 29 30 31 34 36 39 39 40 41 38 32 28 28 27 28 28 27 27 27 26 25 23 24 28 29 26 25 27 30 33 33 31 29 30 31 30 29 27 24 21 19 17 16 15 13 10 11 11 11 9 7 7 6 7 7 8
25 24 26 28 29 29 30 29 28 27 27 28 29 30 30 30 30 29 29 28 28 28 28 30 30 30 30 30 31 31 30 32 35 36 37 38 38 40 41 35 31 29 28 28 28 26 27 28 27 26 25 24 27 31 29 26 24 25 27 28 27 26 26 28 29 28 27 24 21 20 19 17 16 14 12 12 11 10 9 8 8 7 7 8 9
25 26 27 29 30 29 28 27 27 27 26 27 29 30 30 30 29 28 29 28 28 28 28 28 29 29 30 30 31 31 29 30 35 36 37 37 38 41 42 36 32 31 29 29 28 27 29 31 29 27 26 25 27 30 31 28 24 24 25 24 24 25 24 24 26 28 28 25 21 22 21 19 17 16 15 16 15 12 10 10 10 10 9 8 9
27 27 26 27 26 25 25 25 25 26 27 28 29 29 29 28 27 27 28 28 29 28 27 26 26 28 29 30 30 29 28 29 33 36 38 39 39 41 41 35 33 33 30 29 29 28 30 32 32 30 27 27 29 29 30 30 27 25 26 24 23 23 22 21 21 24 27 28 25 24 23 20 18 18 17 18 18 15 13 11 10 10 9 9 9
25 24 22 22 23 23 24 25 25 25 27 28 27 26 25 25 24 25 26 26 27 27 25 25 25 26 27 28 29 29 28 30 33 36 39 41 41 41 38 34 35 34 30 29 31 31 30 31 34 34 29 27 31 31 29 31 30 26 26 25 23 22 22 22 21 21 23 27 27 25 23 20 19 19 18 18 19 18 15 13 11 10 9 9 9
20 20 21 22 23 23 23 24 25 25 25 25 24 23 23 23 24 24 25 25 25 25 25 25 25 24 25 27 29 29 31 34 36 37 40 42 43 43 38 34 35 34 31 31 31 31 31 30 33 37 34 31 33 32 30 32 32 27 26 26 25 22 21 22 23 22 22 23 23 22 21 19 19 19 17 17 19 19 16 14 12 11 10 10 9
16 18 20 21 21 21 21 23 24 25 24 23 23 23 23 23 23 24 23 23 23 23 24 24 25 25 25 26 28 29 31 35 38 39 41 43 45 45 42 37 35 34 32 33 32 31 31 31 32 36 37 36 37 35 32 33 34 30 27 27 25 22 21 22 22 22 21 21 20 19 18 18 18 17 16 15 16 16 15 13 13 11 10 10 10
15 16 18 19 20 20 20 21 21 22 23 22 21 21 21 22 22 22 22 22 22 23 24 24 26 25 25 26 29 30 31 36 40 41 42 45 47 49 48 44 40 36 34 34 35 34 34 35 35 36 37 38 40 38 33 32 35 33 29 26 24 22 22 22 21 22 22 22 20 18 17 16 16 16 16 15 14 14 13 13 13 12 11 10 8
12 14 15 17 18 18 18 18 18 19 20 21 20 20 20 21 21 21 21 20 21 23 25 25 26 26 26 28 29 30 32 36 40 43 45 46 48 52 55 52 46 41 38 37 38 38 37 39 40 38 37 38 41 41 36 33 36 35 30 26 25 24 23 23 21 21 23 22 20 18 17 17 16 15 15 15 14 13 12 12 12 11 10 8 6
11 12 12 14 16 16 16 17 18 18 19 19 20 19 19 19 19 20 21 21 22 24 25 25 25 27 28 29 30 30 33 35 38 43 48 50 50 54 56 54 49 45 40 36 34 34 35 39 40 37 37 38 40 40 37 34 36 36 32 28 26 24 25 24 21 21 23 21 20 19 18 17 16 15 15 14 13 12 12 10 10 10 9 8 7
9 10 11 13 14 15 15 16 16 16 17 18 19 19 19 19 20 20 21 22 22 24 24 24 25 26 27 28 28 28 30 32 33 39 46 50 51 53 54 55 54 52 45 38 33 31 33 36 36 34 35 36 37 38 38 35 34 35 34 30 26 25 26 25 22 22 23 22 21 20 18 16 15 14 13 12 12 12 12 11 9 9 8 8 8
7 8 9 10 11 12 13 14 14 15 15 16 16 17 18 18 20 21 21 22 22 23 23 23 24 25 25 27 28 27 28 30 31 34 40 46 49 51 53 56 57 57 54 47 38 33 33 37 38 35 34 36 39 40 39 35 32 33 34 31 27 26 27 26 24 23 23 23 22 20 18 16 15 13 12 12 13 14 13 12 10 9 9 8 8
8 8 8 8 8 10 10 10 10 11 12 13 14 15 16 17 18 19 19 20 21 22 22 22 23 24 25 26 27 27 28 31 30 29 34 42 48 51 54 56 58 59 57 51 42 37 37 40 40 37 35 37 40 40 39 36 32 31 32 30 27 26 26 26 24 23 24 24 22 19 16 15 14 13 13 15 15 14 13 12 11 11 10 10 9
9 9 8 8 7 8 8 6 6 8 10 11 11 12 13 14 15 16 18 19 18 19 20 21 23 24 25 25 27 27 29 33 33 29 32 39 45 50 54 57 59 60 57 51 43 39 39 41 40 38 39 39 38 35 34 33 32 28 26 25 24 24 24 23 23 23 23 22 20 18 17 16 15 15 16 16 15 14 13 13 12 11 10 9 9
10 10 9 9 8 7 7 6 5 5 5 5 4 4 6 8 9 10 12 13 14 14 15 17 19 22 22 23 24 24 26 31 33 31 34 42 47 50 54 58 61 62 63 56 44 36 38 42 41 40 41 39 36 34 33 32 31 26 23 23 23 22 23 24 24 23 22 20 19 19 18 17 16 17 17 16 14 14 13 13 12 11 10 9 9
11 10 10 10 9 8 7 6 5 4 3 3 2 1 3 6 7 8 9 12 14 16 18 21 24 25 27 29 31 31 32 36 36 32 32 41 50 53 56 59 62 63 63 56 42 34 36 41 40 42 43 40 35 34 34 35 35 32 29 30 27 24 24 26 25 24 22 20 20 20 19 17 18 18 17 16 15 14 14 14 13 12 10 10 10
11 12 12 12 11 10 10 9 8 7 6 5 4 3 3 1 1 2 4 6 8 12 15 18 20 20 22 27 34 38 40 45 48 46 42 42 47 54 58 60 62 61 59 52 42 37 38 38 37 40 42 40 36 36 36 36 36 35 33 33 30 27 26 27 26 24 23 21 20 20 20 19 19 18 17 17 16 15 14 14 13 13 12 11 11
13 14 13 13 12 12 11 10 9 8 7 6 4 3 3 3 4 4 5 7 7 6 6 7 9 11 12 16 24 29 32 36 42 47 49 48 49 54 60 63 63 62 61 55 45 38 38 38 38 40 42 39 37 39 40 38 37 36 34 32 30 30 29 28 27 25 22 21 20 20 20 20 19 18 17 17 16 15 15 14 14 15 13 12 11
16 15 14 13 12 11 10 9 8 7 6 5 4 4 3 3 3 4 6 8 10 11 11 10 10 10 11 14 18 23 27 31 36 40 45 50 51 53 59 66 66 64 64 57 44 37 36 34 30 32 38 40 40 40 40 39 37 36 34 31 31 30 29 28 28 25 22 22 21 20 19 19 18 17 17 17 15 15 15 15 15 14 13 12 11
17 16 14 13 12 10 9 8 7 6 6 5 4 4 4 4 4 4 4 6 7 9 11 13 13 15 17 19 21 24 30 36 40 44 47 52 54 53 56 63 65 65 66 58 43 36 35 29 19 14 19 30 36 35 35 36 36 35 33 32 31 28 26 30 31 25 22 23 22 20 19 19 18 18 18 17 16 16 15 15 14 14 13 12 11
16 15 14 13 12 10 9 8 7 7 6 6 5 5 5 5 4 4 5 6 6 8 9 11 13 17 20 22 24 28 33 38 43 46 48 51 52 48 48 53 54 57 62 55 45 39 35 32 31 29 28 34 38 36 33 33 34 34 33 32 30 25 25 30 30 24 21 22 21 19 20 19 19 19 17 16 16 16 15 15 15 14 13 11 10
13 13 13 13 12 10 9 9 8 8 7 6 6 5 5 5 5 5 5 5 6 7 8 10 14 18 20 22 25 29 32 36 40 40 38 40 40 37 42 48 44 43 44 40 39 41 37 34 38 38 36 38 41 40 37 34 33 34 34 31 29 26 26 28 27 23 21 20 20 19 20 19 19 19 17 16 17 17 16 15 14 14 12 11 11
13 12 12 12 11 11 10 9 8 8 7 6 6 5 6 6 6 6 7 7 7 8 9 11 14 18 20 22 26 30 32 32 32 32 29 26 25 27 38 42 34 30 32 32 36 41 38 37 39 38 36 36 37 37 36 35 33 34 34 31 30 30 29 27 26 24 22 20 19 20 19 19 19 19 17 17 17 17 16 15 14 13 11 10 10
13 12 12 11 11 10 10 9 8 8 7 7 7 7 7 7 6 6 7 8 8 9 10 12 14 16 18 22 26 29 31 27 24 27 27 18 12 18 29 32 25 20 22 29 38 41 38 37 39 39 37 35 34 34 35 35 34 35 33 30 29 29 27 26 26 25 22 19 18 19 19 19 19 18 18 17 17 17 16 15 14 12 12 11 11
12 12 11 10 10 10 9 9 8 9 8 8 8 8 7 7 7 7 7 8 8 9 10 11 13 14 16 21 25 28 28 23 19 23 24 19 14 7 9 21 24 23 25 32 37 40 39 37 38 39 37 34 33 32 32 32 32 32 32 30 27 26 25 26 26 25 21 19 18 18 19 20 19 18 18 18 17 17 16 14 13 13 12 12 13
11 12 11 10 9 9 9 9 9 9 9 8 8 8 8 7 7 8 8 8 8 9 10 10 11 13 17 22 25 27 26 21 16 18 26 36 38 32 24 23 26 27 30 33 33 35 37 36 37 38 36 32 30 29 27 28 28 29 29 29 28 26 25 24 24 22 20 19 19 19 20 21 19 18 19 18 17 16 15 14 13 13 13 12 12
10 10 11 12 11 10 10 10 10 10 9 9 8 8 8 8 7 7 8 8 7 8 9 9 10 12 16 20 21 22 22 21 19 19 24 34 39 34 31 31 31 31 32 32 30 31 34 34 35 35 33 31 29 27 26 26 28 29 29 28 26 24 22 21 19 20 20 20 20 20 20 20 19 19 18 17 16 14 13 13 13 13 13 13 12
9 9 10 11 11 11 10 10 9 9 9 9 9 8 8 9 9 8 8 8 7 7 7 8 9 11 14 17 17 17 18 20 21 21 21 25 31 32 30 30 30 30 31 31 30 31 32 33 34 33 31 30 28 27 27 28 28 27 27 25 21 19 19 17 17 18 19 20 20 20 19 19 19 18 17 16 15 14 13 13 13 13 13 13 13
9 9 9 10 11 11 10 9 8 8 8 8 8 8 7 8 9 8 8 8 7 7 7 8 9 10 12 14 14 14 16 19 22 22 21 20 23 27 29 29 29 29 29 30 31 32 33 32 32 32 30 29 27 27 28 30 28 24 22 21 19 18 17 16 16 18 20 20 19 19 18 18 18 17 15 15 14 13 13 13 13 13 13 13 13
8 8 9 9 9 10 10 9 9 8 8 7 7 7 7 8 8 8 8 7 7 7 7 8 9 10 11 11 11 11 13 16 19 20 21 21 22 23 25 28 29 29 29 29 29 30 30 30 30 30 29 28 27 27 29 30 27 24 21 20 19 18 17 16 16 17 18 17 17 17 17 17 16 16 15 15 14 13 13 13 13 13 13 12 12
10 10 10 10 10 10 10 10 10 9 9 8 7 7 8 8 8 8 8 8 7 7 6 7 8 9 9 10 10 11 12 14 15 16 18 20 21 22 24 27 28 26 26 26 26 26 27 28 28 29 28 26 27 27 27 26 24 22 19 18 16 15 14 14 14 14 15 15 15 15 16 16 15 15 15 15 14 14 13 13 13 13 13 12 12
12 11 11 11 12 12 11 11 11 11 11 11 10 10 9 9 9 8 8 8 7 7 6 6 7 8 9 10 9 10 11 12 14 15 16 17 18 18 21 24 25 24 23 24 25 26 27 28 29 29 29 27 27 26 24 22 19 17 15 14 13 12 11 11 11 12 13 14 14 14 15 15 15 15 14 14 13 13 13 13 13 13 13 13 12
13 13 13 12 12 12 12 12 12 12 12 12 12 12 11 11 11 10 10 9 9 8 8 8 8 9 9 9 8 9 10 11 14 15 15 14 15 17 17 18 19 19 20 22 23 24 25 26 27 28 27 26 24 23 21 18 16 15 13 11 10 10 10 10 10 11 12 13 13 13 13 14 14 14 14 13 13 12 12 13 13 13 13 13 12
14 14 14 13 13 12 12 13 12 12 13 13 13 13 13 13 13 13 12 12 12 12 11 10 10 10 9 8 7 8 8 8 11 13 13 11 11 13 13 13 13 14 16 17 18 18 21 23 25 27 27 25 23 20 18 17 15 13 12 11 10 11 11 11 10 9 10 11 11 11 12 12 12 12 13 13 13 12 12 13 13 13 12 13 12
16 16 15 14 14 13 13 13 13 13 13 13 13 14 14 14 15 15 14 13 13 14 14 13 11 10 10 10 9 9 9 8 9 10 11 10 10 10 10 10 11 12 13 14 14 16 20 23 24 24 25 24 21 19 17 15 14 12 11 10 11 12 12 11 10 9 10 10 10 10 11 11 11 11 11 12 13 13 12 12 13 13 12 12 12
18 17 16 16 15 14 14 14 14 14 14 14 14 14 14 15 15 16 16 15 15 15 14 14 12 11 12 12 11 10 10 10 11 12 12 12 11 11 10 10 11 12 12 12 13 15 18 20 20 19 20 20 18 16 15 14 12 11 10 10 11 11 11 11 10 11 11 10 9 10 11 11 11 11 10 10 12 12 12 12 12 12 12 12 12
19 18 18 18 17 16 15 15 15 15 15 14 14 14 14 15 16 17 17 17 17 17 16 14 14 15 16 17 16 15 13 13 12 12 11 11 11 10 9 8 8 9 9 10 11 12 15 17 17 17 17 16 15 14 13 12 12 11 11 12 12 12 10 9 8 9 10 10 8 8 9 9 9 10 10 10 11 11 12 12 12 12 12 12 12
Wind_Direction
193 196 198 200 201 203 204 206 207 209 208 207 209 211 212 212 213 213 212 211 211 211 212 213 212 213 214 214 213 213 211 209 207 206 208 209 207 209 211 211 213 216 215 213 211 210 208 208 210 209 207 207 206 207 207 205 207 209 211 207 207 208 206 213 227 228 218 216 225 232 225 222 224 226 236 242 244 255 257 246 247 256 258 258 264
194 195 196 198 201 202 203 205 206 208 208 207 209 211 211 212 213 212 212 211 210 210 211 213 213 214 214 214 213 212 210 208 207 204 206 207 205 206 207 208 213 217 218 216 212 209 208 210 211 209 208 209 208 209 208 207 208 209 210 210 211 211 208 210 221 230 225 213 216 224 218 220 229 228 233 239 237 238 242 244 248 250 252 257 261
195 195 195 198 200 201 202 203 204 206 206 207 209 211 211 211 211 211 211 212 211 211 212 212 213 213 214 214 212 212 211 210 209 206 206 207 205 205 206 206 210 215 218 218 213 209 209 210 212 210 208 209 210 211 211 210 210 211 211 212 216 215 210 211 218 226 232 222 213 217 215 215 225 228 228 232 237 238 240 243 247 248 249 254 259
195 194 195 198 199 199 200 202 203 205 207 208 209 211 212 211 211 211 212 213 211 211 213 213 212 211 212 212 212 212 211 210 210 209 208 209 207 207 206 206 208 212 215 217 214 212 210 211 213 212 210 210 209 209 211 211 210 212 213 212 216 218 214 213 217 222 230 230 219 217 216 214 220 226 226 229 234 237 241 244 246 248 250 252 259
195 195 197 199 198 198 199 201 203 205 207 209 211 212 213 212 212 211 213 214 213 211 212 212 211 210 211 212 212 212 212 211 212 211 210 210 209 209 208 208 209 211 214 217 216 214 213 213 214 212 211 211 210 208 209 210 211 212 213 212 213 216 215 214 215 218 224 230 227 219 214 215 221 223 223 228 232 233 236 241 245 249 252 257 263
194 195 197 198 198 199 200 201 203 206 208 210 211 213 213 213 213 212 213 213 213 213 212 212 211 210 212 213 213 213 213 212 212 213 212 211 210 209 209 210 212 213 215 218 218 216 215 215 215 214 213 212 211 209 207 207 210 212 213 214 213 212 214 214 214 217 220 227 232 226 218 215 218 220 221 222 228 233 233 237 243 246 249 254 259
195 196 197 197 198 199 200 201 204 207 208 209 211 212 213 213 213 213 213 214 214 214 214 213 211 211 212 214 214 215 214 213 213 214 213 212 210 209 210 211 212 214 216 219 219 218 216 217 217 216 215 214 211 209 207 206 210 213 213 213 213 212 213 214 216 219 221 224 228 230 225 218 217 219 214 210 222 235 238 245 248 242 239 243 250
195 196 197 197 197 198 199 201 203 205 206 207 208 210 212 212 212 213 213 213 214 215 215 214 212 211 212 215 216 215 215 214 213 212 214 213 210 209 210 211 212 213 216 219 220 220 219 219 220 219 217 216 212 209 207 206 208 212 213 212 213 214 214 215 218 220 223 224 226 227 227 222 220 218 207 202 217 231 234 243 250 248 243 240 240
195 196 197 197 197 196 197 200 202 203 204 204 206 208 210 210 211 212 212 213 214 215 215 214 212 210 211 214 215 215 215 214 213 212 211 211 211 211 211 211 212 213 215 218 220 221 220 221 222 222 220 218 216 213 210 208 207 209 211 210 211 213 216 218 218 220 223 224 224 224 225 222 219 216 213 211 218 227 231 236 247 254 255 253 246
193 195 197 197 194 193 195 198 199 200 201 202 204 206 208 209 210 211 211 213 214 214 214 214 213 211 210 211 212 213 214 216 218 218 214 211 209 210 211 211 212 214 215 218 220 220 221 223 225 224 223 222 221 219 217 215 215 213 210 209 209 210 214 217 218 219 221 223 224 222 223 224 221 217 219 219 218 223 230 234 244 252 253 260 260
192 195 197 194 190 190 193 196 197 198 200 201 203 205 206 208 209 209 210 211 212 213 213 214 215 214 212 211 212 213 214 219 222 221 220 216 211 208 210 211 211 214 216 217 219 221 221 223 225 224 223 222 222 223 223 222 223 224 220 214 212 211 211 214 218 220 221 223 225 224 225 227 224 218 219 220 218 223 228 230 238 243 243 256 265
194 195 194 189 188 190 193 194 195 197 199 200 202 203 205 207 208 208 209 210 211 212 213 214 215 215 214 214 214 214 217 222 224 222 222 221 216 210 211 212 212 215 217 217 219 221 220 221 223 221 220 219 218 221 225 225 227 229 228 224 220 218 216 216 217 220 224 226 225 226 229 230 228 221 216 216 218 219 222 225 230 236 241 253 265
196 193 191 188 189 192 193 194 196 198 199 199 201 202 204 206 208 208 209 210 211 213 214 215 215 215 216 216 216 217 219 223 225 224 223 223 220 216 213 215 216 217 218 218 218 218 217 218 219 217 217 217 213 212 219 224 226 228 229 228 225 225 225 224 223 225 227 230 231 230 231 233 233 225 214 214 220 219 221 226 229 235 243 252 263
197 194 192 192 193 194 194 195 198 199 199 199 200 203 205 207 208 210 211 211 212 213 215 216 216 216 217 217 218 220 220 222 225 225 224 224 223 220 217 217 220 221 220 219 217 217 216 215 216 214 211 212 210 205 207 217 222 223 225 226 225 225 228 229 229 230 231 233 236 234 234 235 232 223 212 211 217 219 221 228 232 238 245 253 266
197 195 194 195 196 196 197 198 199 199 199 199 201 205 208 209 210 211 213 213 214 215 216 217 218 218 218 218 219 222 222 222 224 226 226 224 223 222 220 219 222 224 223 220 218 217 217 215 216 214 207 204 209 207 202 205 212 215 218 221 221 221 225 226 226 227 228 231 234 235 237 235 229 227 222 214 214 215 216 224 230 235 245 259 268
196 195 195 197 199 199 200 200 200 200 199 200 203 207 209 210 210 210 213 215 216 217 217 218 219 219 219 219 221 223 224 223 224 225 225 224 222 222 220 219 221 224 224 223 220 219 221 219 216 212 207 205 212 213 208 202 204 208 211 213 214 216 220 222 222 221 221 223 229 234 235 232 231 234 228 215 209 206 208 219 222 223 238 256 263
196 196 197 199 200 201 201 201 200 200 200 201 205 208 209 210 209 209 211 214 216 217 218 220 220 220 220 220 222 224 225 225 224 225 225 223 221 220 218 217 220 223 224 225 223 222 223 222 218 213 209 209 213 215 212 206 203 208 210 207 208 213 216 219 221 222 221 220 222 227 230 232 237 240 229 217 212 204 205 217 223 227 238 248 257
198 199 199 200 200 199 199 200 199 200 201 204 207 209 210 211 209 209 211 214 218 220 220 221 221 221 222 222 223 225 228 229 227 225 225 224 220 217 215 215 219 221 222 224 225 224 224 224 222 217 212 211 212 213 213 209 205 209 212 207 206 210 211 211 212 216 220 220 220 223 229 233 236 235 229 224 221 216 216 224 232 238 242 248 259
200 200 199 197 197 198 198 200 200 201 204 208 211 213 213 213 212 212 214 217 221 222 222 224 224 223 224 225 225 227 231 233 230 225 223 221 219 216 214 216 221 222 220 222 225 226 225 224 223 221 217 214 213 212 212 209 204 205 209 209 209 209 209 210 206 203 208 213 215 221 226 226 225 226 229 228 225 223 224 229 238 243 246 256 263
197 197 195 194 196 198 199 200 202 205 208 210 213 214 213 214 215 215 217 220 223 224 224 225 227 226 226 227 225 226 231 234 233 228 223 221 219 215 212 217 223 223 221 222 225 226 224 223 224 224 219 214 212 211 211 209 204 202 206 211 212 210 210 212 208 202 202 203 204 210 214 213 214 219 223 226 225 225 225 228 237 241 243 253 254
190 190 191 193 196 198 199 202 203 206 208 209 211 214 214 216 216 216 219 221 222 223 223 224 227 227 226 227 227 227 230 234 234 232 226 222 219 214 211 215 221 221 220 221 222 224 223 220 222 222 219 215 212 210 210 210 206 202 204 209 210 208 210 210 202 199 202 197 191 193 197 201 208 213 215 218 220 220 220 226 237 240 238 244 252
184 184 187 192 197 198 200 203 203 206 209 209 211 213 213 215 215 216 219 220 222 226 227 228 231 231 229 231 232 231 231 234 234 233 228 222 219 214 212 213 216 215 216 217 216 219 219 215 215 218 218 215 211 208 208 210 208 203 202 204 205 204 207 205 195 194 201 198 190 189 191 196 206 212 213 213 212 213 218 227 233 233 233 241 256
177 183 188 193 198 201 204 205 205 208 211 211 211 213 213 214 215 216 219 222 227 233 235 235 238 240 239 240 239 237 236 236 235 233 229 225 221 218 216 215 213 210 211 213 212 211 212 211 212 217 218 213 208 208 209 208 206 203 198 198 201 200 199 198 193 194 199 197 191 191 193 197 204 209 211 213 213 215 221 225 221 218 222 231 237
169 178 187 193 199 204 208 209 209 211 211 210 210 213 213 214 216 218 220 224 230 236 238 238 241 244 246 246 244 241 240 239 237 235 232 228 224 221 219 217 214 211 213 217 214 210 210 209 209 212 214 210 206 207 209 205 203 201 196 194 198 197 193 193 192 192 195 193 191 193 195 199 205 207 209 212 214 213 212 210 205 202 206 215 220
174 181 187 190 195 200 204 207 209 210 209 208 209 213 215 217 221 225 227 229 233 237 240 241 242 245 247 248 247 246 245 243 241 238 234 230 227 224 220 218 216 215 216 220 221 215 211 207 204 208 211 207 202 203 204 202 201 200 195 193 194 192 192 193 191 190 191 190 190 193 194 197 204 208 208 209 208 204 198 192 191 194 198 210 221
170 179 185 187 191 195 198 202 205 207 208 209 212 218 222 224 227 230 232 233 236 239 242 244 245 247 248 249 251 251 249 247 244 240 234 228 226 225 222 220 219 217 217 220 221 218 211 205 202 204 205 200 197 198 199 198 198 198 195 192 191 191 194 194 188 186 189 189 189 192 193 194 200 202 199 200 201 198 191 183 184 192 201 211 224
149 157 167 172 177 186 191 196 200 202 205 212 218 225 229 231 233 234 236 238 240 241 242 244 248 250 252 254 254 253 250 249 248 240 228 223 223 222 221 221 220 219 219 220 220 216 209 202 199 198 198 196 194 193 193 192 192 194 192 190 191 193 195 193 188 188 191 190 188 189 188 187 187 186 188 196 198 193 186 184 189 199 208 213 224
133 137 143 144 151 163 169 174 185 193 201 211 219 225 230 233 235 235 237 240 243 246 247 247 249 252 254 256 257 256 253 251 249 239 225 221 221 219 217 219 219 217 218 220 220 216 205 195 190 189 189 187 184 182 184 185 185 185 185 186 190 194 192 190 191 192 191 188 186 184 180 176 179 186 191 195 194 187 183 187 197 208 213 214 222
118 119 121 119 123 133 139 144 161 178 189 200 219 246 257 257 255 251 248 247 251 261 268 269 266 266 267 266 263 261 259 257 255 249 237 230 225 221 219 219 218 218 219 219 217 211 196 184 179 178 177 174 172 172 174 175 174 174 176 180 188 191 189 191 196 194 189 186 184 179 172 170 179 189 193 190 186 185 186 191 199 207 210 214 226
110 105 101 99 102 109 112 114 123 133 138 145 154 235 272 269 270 272 270 268 267 268 274 277 276 277 281 278 272 270 270 269 269 268 256 242 232 227 225 224 221 219 218 215 210 202 190 181 176 173 169 168 169 170 171 169 167 168 172 177 183 187 188 193 197 193 187 185 181 174 170 174 181 186 187 183 182 187 192 197 204 209 210 217 233
95 89 84 82 84 89 93 93 96 98 96 97 103 105 107 105 6 317 297 288 279 273 274 278 281 287 291 286 280 279 279 277 276 276 274 262 244 232 228 226 221 217 213 208 202 195 188 183 179 173 170 169 169 169 168 167 166 166 168 173 179 183 186 190 193 190 184 183 180 175 173 177 179 181 182 183 186 192 192 195 210 220 219 222 235
90 87 85 83 80 82 85 84 85 87 84 78 77 78 78 76 67 42 17 15 18 10 344 321 312 310 307 301 296 293 291 288 284 280 277 272 259 243 232 226 220 212 207 202 197 191 188 186 181 176 174 172 169 166 164 163 164 163 162 166 176 184 187 189 189 186 182 179 179 178 176 175 176 179 182 185 192 197 194 197 216 227 225 226 236
90 89 90 90 86 82 82 82 81 84 82 77 73 66 51 38 32 15 2 9 23 29 26 14 359 348 338 328 320 312 306 304 298 288 279 272 264 253 238 228 219 209 201 197 192 186 185 186 186 188 184 174 163 160 159 159 160 159 157 162 172 181 185 186 185 181 178 178 178 177 175 175 175 178 183 188 197 205 207 212 222 225 223 227 234
90 87 90 95 94 88 83 81 79 77 72 62 55 55 49 30 15 6 357 356 3 6 1 359 7 11 4 354 346 337 328 319 309 299 288 278 270 260 244 230 219 207 199 195 187 179 178 173 165 174 172 156 148 149 153 156 156 156 158 162 168 173 179 183 182 177 173 175 177 175 174 175 176 179 185 193 203 214 221 224 224 221 219 225 233
88 84 83 87 90 85 76 70 64 57 50 41 31 27 29 22 10 4 4 358 349 341 337 341 354 359 356 351 346 339 335 329 320 309 296 284 277 268 247 227 212 201 197 191 179 172 171 161 148 145 146 145 144 147 153 157 158 157 157 160 164 166 172 179 181 178 173 174 176 175 175 178 181 184 191 200 208 217 223 222 220 218 217 222 231
80 80 78 77 77 75 69 63 58 50 40 28 17 11 14 16 9 5 9 5 349 336 330 332 339 341 339 338 335 331 331 334 334 326 306 284 276 263 239 221 204 193 191 183 167 161 160 152 146 148 150 148 147 150 156 161 160 157 156 157 159 161 167 175 179 180 177 176 175 175 177 181 185 189 198 208 213 218 222 220 217 217 217 220 228
71 74 74 74 75 75 71 64 60 58 55 43 28 20 22 21 14 11 15 9 351 342 341 341 341 338 333 332 331 329 328 330 337 341 330 303 279 252 229 217 200 184 180 167 150 147 147 143 143 144 144 144 145 149 155 158 156 154 154 157 160 165 171 177 181 182 180 178 177 177 180 185 190 195 206 216 216 217 218 216 214 216 214 212 219
73 77 79 79 78 77 74 69 63 62 63 54 41 31 25 21 18 16 15 8 355 348 349 350 348 343 336 335 336 335 334 335 343 351 346 327 274 231 212 198 179 162 157 146 136 135 135 136 138 138 138 141 146 150 154 155 155 154 154 156 161 168 175 181 183 182 181 179 177 178 184 191 196 201 211 219 217 214 213 211 210 212 207 201 213
76 77 76 77 79 78 73 69 65 60 58 53 44 35 25 17 14 11 9 6 359 353 351 350 351 349 346 345 344 341 340 344 358 9 17 38 57 62 156 157 143 128 123 124 125 127 130 132 134 134 136 143 149 152 154 154 154 155 157 158 160 168 175 178 179 179 180 180 179 182 190 199 202 204 210 215 213 209 208 207 208 211 208 204 213
71 67 60 59 69 73 69 65 61 57 54 49 42 36 29 19 9 4 5 7 359 354 355 354 354 358 359 359 357 353 347 347 1 27 52 68 67 57 62 89 101 104 110 115 118 124 128 130 133 134 138 144 149 151 151 152 153 156 159 160 164 170 173 174 173 176 180 183 184 188 196 203 204 205 208 211 209 205 204 206 208 209 209 210 214
64 62 57 52 55 62 63 60 57 54 54 50 42 36 32 24 13 6 9 11 3 356 358 357 355 1 6 6 7 6 0 357 2 24 57 78 83 80 80 86 90 96 103 109 115 121 125 128 131 133 137 142 146 149 152 154 157 160 162 163 165 169 171 172 173 176 181 186 188 193 199 203 204 205 205 205 203 202 202 204 204 205 208 214 219
57 55 53 51 50 53 55 56 54 53 53 51 45 38 33 27 21 16 16 18 13 3 359 356 355 3 12 16 19 20 15 10 12 22 44 74 92 98 100 102 107 112 116 119 124 127 127 128 132 135 139 143 147 151 157 161 163 165 167 167 166 165 167 171 174 177 182 189 194 198 201 202 202 201 200 198 199 199 200 202 204 204 207 212 217
57 53 51 52 51 50 49 50 50 49 48 50 50 45 36 28 25 22 20 21 18 8 1 360 358 360 10 19 27 33 33 30 30 32 39 59 84 98 105 111 116 121 125 128 131 132 131 132 135 140 146 151 154 158 165 169 169 166 164 165 166 166 168 171 173 177 184 191 195 197 198 196 195 195 196 195 196 197 198 200 203 206 208 211 214
58 57 55 53 52 51 46 41 39 38 39 46 53 49 39 31 28 25 22 19 16 12 10 8 2 359 5 17 28 36 43 45 45 46 49 58 71 86 99 108 115 120 125 129 133 136 136 137 140 145 151 158 163 167 172 175 172 165 160 160 162 165 168 168 169 173 180 186 188 189 191 191 191 194 196 194 194 196 198 199 202 206 210 213 216
56 56 54 50 46 44 40 33 29 26 23 26 32 35 34 32 28 23 18 13 9 12 19 20 13 7 8 18 29 37 45 53 56 55 58 66 74 83 94 105 113 119 123 128 134 140 141 143 148 153 158 165 171 173 171 168 165 161 157 156 157 160 164 167 169 173 179 183 184 186 190 192 192 195 195 194 195 199 202 200 202 207 211 214 218
57 55 54 51 46 42 37 33 30 30 26 22 22 23 25 25 21 17 13 7 0 0 9 21 28 24 19 20 27 33 41 52 59 58 62 75 85 91 100 111 121 130 135 139 144 150 152 155 159 161 162 163 164 161 156 151 149 148 148 150 153 157 161 165 171 176 182 186 188 189 192 194 195 197 198 198 198 202 206 206 205 206 210 215 222
58 56 54 52 49 46 42 36 34 34 34 31 28 26 25 23 18 14 10 3 356 352 359 16 32 33 24 19 27 35 41 53 62 64 69 85 100 105 110 116 124 132 139 144 149 152 154 156 157 155 152 148 145 143 140 137 136 138 139 142 147 154 160 165 172 179 184 189 192 195 196 197 200 201 202 202 203 204 207 210 209 208 209 215 222
55 55 53 50 47 46 43 40 35 34 34 34 32 30 29 27 23 18 12 6 2 0 5 19 37 46 39 29 34 45 50 57 65 68 69 79 94 101 104 109 114 121 130 135 137 140 146 149 149 148 147 142 136 133 132 131 133 135 135 137 148 160 165 164 166 176 185 189 195 201 203 203 204 204 202 203 207 209 209 209 211 212 214 218 222
53 52 51 49 47 45 43 42 40 37 36 36 35 34 34 32 29 23 19 16 15 14 14 16 27 43 47 42 44 54 59 57 57 58 59 63 69 74 78 86 97 107 117 122 126 135 145 148 147 147 147 144 137 132 132 135 137 138 139 147 164 176 176 172 174 185 191 193 198 207 209 208 210 209 205 203 207 211 212 212 213 214 217 219 220
54 53 51 48 48 47 45 44 44 41 39 37 37 37 37 38 36 31 27 26 25 25 23 22 24 33 40 40 43 54 62 60 54 51 49 50 54 58 64 77 91 99 102 106 116 130 140 144 143 141 140 140 138 136 139 142 142 143 149 161 171 175 177 181 191 199 199 197 204 211 211 209 211 210 205 202 206 210 212 214 216 218 221 222 221
55 54 53 50 48 48 46 44 43 41 38 36 36 36 36 38 39 37 34 34 33 31 33 36 39 42 44 45 45 48 52 53 54 54 53 52 56 61 65 74 90 101 100 101 111 126 135 139 141 141 138 138 141 144 146 148 151 156 162 165 163 160 161 169 182 191 190 187 192 200 200 199 201 202 200 202 207 210 213 217 221 224 226 225 222